Regional Weather Roundup
Issued by NWS

Home | Current Version | Previous Version | Graphics & Text | Print | Product List | Glossary On
Versions: 1 2 3 4 5 6 7 8 9 10 11 12 13 14 15 16 17 18 19 20 21 22 23 24 25 26 27 28 29 30 31 32 33 34 35 36 37 38 39 40 41 42 43 44 45 46 47 48 49 50
000
ASUS45 KABQ 041910
RWRNM
WEATHER ROUNDUP FOR NEW MEXICO
NATIONAL WEATHER SERVICE ALBUQUERQUE NM
100 PM MDT MON MAY 04 2015

NOTE: "FAIR" MEANS FEW OR NO CLOUDS BELOW 12,000 FEET AGL WITH NO
       SIGNIFICANT WEATHER OR OBSTRUCTIONS TO VISION.

      THIS PRODUCT IS RELEASED AS TWO VERSIONS.  ONE VERSION NEAR
      THE TOP OF THE HOUR CONTAINING PRELIMINARY DATA FROM ALBUQUERQUE
      AND OTHER STATIONS.  A FINAL VERSION WITH ADDITIONAL DATA IS
      ISSUED ABOUT 10 MINUTES AFTER THE HOUR.

NMZ501-503-504-510>518-042000-
NORTHWEST PLATEAU/NORTHCENTRAL MOUNTAINS

CITY           SKY/WX    TMP DP  RH WIND       PRES   REMARKS
FARMINGTON     MOSUNNY   68  37  32 CALM      29.96F
LOS ALAMOS     MOSUNNY   66  33  29 S10G22    30.08F
SANTA FE       PTSUNNY   73  34  23 SE29G36   30.01F
TAOS           PTSUNNY   63  30  29 S24G31    30.10S
ANGEL FIRE     CLOUDY    48  34  57 W3        30.20R

$$
NMZ402-403-502-505>509-042000-
WESTCENTRAL MOUNTAINS/SOUTHWEST MOUNTAINS

CITY           SKY/WX    TMP DP  RH WIND       PRES   REMARKS
GALLUP         PTSUNNY   58  46  64 N16       30.04F
GRANTS         LGT RAIN  59  42  52 W10       30.02F
SILVER CITY    LGT RAIN  63  46  55 S7        30.05R

$$
NMZ407-409-411-412-042000-
SOUTHERN DESERTS

CITY           SKY/WX    TMP DP  RH WIND       PRES   REMARKS
LORDSBURG      MOCLDY    72  45  37 E7        29.96F
DEMING         MOSUNNY   78  40  25 NW9       29.94F
LAS CRUCES     PTSUNNY   80  42  25 E7G16     29.94F
HOLLOMAN AFB   MOSUNNY   79  44  28 SE13G24   29.91F
ALAMOGORDO     MOSUNNY   75  45  33 SE9       29.94F
T OR C         MOSUNNY   74  39  28 VRB5      29.94F

$$
NMZ519>523-042000-
CENTRAL VALLEYS/CENTRAL HIGHLANDS

CITY           SKY/WX    TMP DP  RH WIND       PRES   REMARKS
ALBUQUERQUE    PTSUNNY   74  36  25 SE12G21   29.98F
MORIARTY ARPT  FAIR      70  36  28 SE18G30   30.05F
CLINES CORNERS PTSUNNY   64  39  39 SE17G28   30.08F
BELEN          FAIR      75  34  22 SE14G24   29.96F
SOCORRO        FAIR      76  37  24 SW9       29.96F

$$
NMZ524>526-539-540-042000-
SOUTHCENTRAL MOUNTAINS

CITY           SKY/WX    TMP DP  RH WIND       PRES   REMARKS
RUIDOSO        TSTM      52  48  87 SE12G20   30.12F VSB 1

$$
NMZ527>531-042000-
NORTHEAST HIGHLANDS/NORTHEAST PLAINS

CITY           SKY/WX    TMP DP  RH WIND       PRES   REMARKS
LAS VEGAS      PTSUNNY   64  41  42 S22G30    30.10F
RATON          PTSUNNY   71  37  28 SE13G23   30.05F
CLAYTON        CLOUDY    70  48  45 SE6G17    30.04F

$$
NMZ532>537-042000-
EASTCENTRAL PLAINS

CITY           SKY/WX    TMP DP  RH WIND       PRES   REMARKS
TUCUMCARI      TSTM      56  52  86 NW18      30.03F
CANNON AFB     PTSUNNY   73  55  52 W6        30.00F
CLOVIS AIRPORT PTSUNNY   75  54  46 SE12G26   29.99F

$$
NMZ028-029-538-042000-
SOUTHEAST PLAINS

CITY           SKY/WX    TMP DP  RH WIND       PRES   REMARKS
ROSWELL        MOSUNNY   76  48  37 NE7       29.96F
ARTESIA        MOSUNNY   81  50  34 SE15      29.96F
CARLSBAD       PTSUNNY   78  55  44 SE13      29.94F
HOBBS          PTSUNNY   73  57  56 SE14      30.00F


$$


USA.gov is the U.S. government's official web portal to all federal, state and local government web resources and services.